Tracking 28126 objects as of 1-Oct-2023
HD Live streaming from Space Station
objects crossing your sky now

THORAD AGENA D DEB

Track THORAD AGENA D DEB now!
10-day predictions


NORAD ID: 42508
Int'l Code: 1970-025RN
Perigee: 842.8 km
Apogee: 1,023.2 km
Inclination: 99.8 °
Period: 103.5 minutes
Semi major axis: 7303 km
RCS: Unknown
Launch date: April 8, 1970
Source: United States (US)
Launch site: AIR FORCE WESTERN TEST RANGE (AFWTR)

Note: This is SATELLITE DEBRIS
Your satellite tracking list
Your tracking list is empty




NASA's NSSDC Master Catalog

Two Line Element Set (TLE):
1 42508U 70025RN  23268.26281081  .00001196  00000-0  93569-3 0  9994
2 42508  99.8404  63.3836 0123534 100.4199 261.0907 13.90790578 37684
Source of the keplerian elements: AFSPC